Zurück zum Katalog

IMECE

AktivWissenschaftSSO
NORAD 56178·PAYLOAD·🇹🇷 Turkey

Gestartet Apr 15, 2023 von Vandenberg Space Force Base

Loading…

Nächste Überflüge (nächste 24 Stunden)

TLE

AktuellSource: Space-Track

Epoche: Sep 14, 2026, 13:46 UTC

1 56178U 23054A   26257.57426853  .00000221  00000-0  49173-4 0  9996
2 56178  98.1116 161.3550 0008331 245.9034 114.1298 14.65896273183502

Verfolge IMECE in Echtzeit mit AllMySat

Download on the App Store